Home   Weather   Reston   Past weeks

Flag for USA Past Weather in Reston, Virginia, USA — Yesterday and Last 2 Weeks

Now
80 °F

Passing clouds.


Feels Like: 84 °F
Forecast: 68 / 82 °F
Wind: 7 mph from Northwest

Location: Washington-Dulles International Airport

Current Time: Jul 24, 2017 at 10:48:44 pm

Latest Report: Jul 24, 2017 at 9:52 pm


Visibility: 10 mi

Pressure: 29.87 "Hg

Humidity: 79%

Dew Point: 73 °F

Location of RestonLocation

Past Weather in Reston — Graph

°F

Reston Temperature Yesterday

Maximum temperature yesterday: 87 °F (at 2:52 pm)
Minimum temperature yesterday: 72 °F (at 5:52 am)
Average temperature yesterday: 78 °F

High & Low Weather Summary for the Past Weeks

 TemperatureHumidityPressure
High93 °F (Jul 14, 2:52 pm)97% (Jul 19, 2:52 am)30.10 "Hg (Jul 19, 2:52 am)
Low64 °F (Jul 10, 5:52 am)35% (Jul 10, 4:52 pm)29.72 "Hg (Jul 24, 4:52 am)
Average80 °F70%29.96 "Hg
* Reported Jul 9 8:52 pm — Jul 24 8:52 pm, Reston. Weather by CustomWeather, © 2017

Note: Actual official high and low records may vary slightly from our data, if they occured in-between our weather recording intervals... More about our weather records

Advertising

Reston Weather History for the Previous 24 Hours

Scroll right to see more
 ConditionsComfort  
Time TempWeatherWind HumidityBarometerVisibility
8:52 pm
Mon, Jul 24
81 °FPassing clouds.5 mph74%29.83 "Hg10 mi
7:52 pm83 °FBroken clouds.3 mph72%29.81 "Hg10 mi
6:52 pm83 °FBroken clouds.6 mph74%29.80 "Hg10 mi
5:52 pm82 °FLight rain. Broken clouds.12 mph67%29.81 "Hg10 mi
5:03 pm86 °FBroken clouds.16 mph61%29.82 "Hg10 mi
4:52 pm87 °FBroken clouds.7 mph57%29.80 "Hg10 mi
3:52 pm88 °FBroken clouds.No wind52%29.81 "Hg10 mi
2:52 pm86 °FScattered clouds.No wind51%29.82 "Hg10 mi
1:52 pm87 °FScattered clouds.6 mph50%29.82 "Hg10 mi
12:52 pm86 °FScattered clouds.12 mph53%29.83 "Hg10 mi
11:52 am84 °FScattered clouds.13 mph55%29.83 "Hg10 mi
10:52 am83 °FScattered clouds.8 mph61%29.83 "Hg10 mi
9:52 am81 °FScattered clouds.7 mph65%29.82 "Hg10 mi
8:52 am79 °FScattered clouds.8 mph72%29.82 "Hg10 mi
7:52 am76 °FPartly sunny.3 mph85%29.80 "Hg10 mi
6:52 am74 °FPartly sunny.No wind91%29.76 "Hg10 mi
5:52 am73 °FPassing clouds.3 mph94%29.73 "Hg10 mi
4:52 am73 °FPassing clouds.5 mph94%29.72 "Hg10 mi
3:52 am74 °FPassing clouds.No wind94%29.73 "Hg10 mi
2:52 am74 °FOvercast.3 mph97%29.73 "Hg10 mi
1:52 am73 °FPartly cloudy.No wind97%29.74 "Hg10 mi
12:52 am73 °FPassing clouds.3 mph94%29.74 "Hg10 mi
12:17 am74 °FMostly cloudy.5 mph94%29.77 "Hg10 mi
11:52 pm
Sun, Jul 23
74 °FOvercast.6 mph94%29.76 "Hg10 mi
11:22 pm73 °FStrong thunderstorms. Fog.5 mph94%29.80 "Hg3 mi
11:05 pm73 °FThunderstorms. Fog.13 mph94%29.77 "Hg4 mi
10:38 pm76 °FLight rain. Mostly cloudy.9 mph85%29.83 "Hg6 mi
Weather by CustomWeather, © 2017

See weather overviewHow to use our weather pages